[[{"header":{"parameterUnit":"m.s-1","parameterCategory":1,"la1":30.2991,"la2":30.254,"lo1":-89.0895,"lo2":-89.0444,"dy":0.0017,"dx":0.0017,"nx":28,"ny":28,"refTime":"2023-04-16T21:00:00:Z","depth":0,"parameterNumber":2,"parameterNumberName":"U-component_of_WINDS"},"data":[0,0,0,0,0,0,0,0,0,0,0,0,0,0,0,0,0,0,0,0,0,0,0,0,0,0,0,0,0,0,0,0,0,0,0,0,0,0,0,0,0,0,0,0,0,0,0,0,0,0,0,0,0,0,0,0,0,0,2.0914,2.0916,0,2.1037,2.1039,2.104,2.1051,2.1049,2.1048,2.1047,2.1177,2.1181,2.1186,0,0,0,0,0,0,0,0,0,0,0,0,0,2.0692,2.0696,2.0914,2.0916,2.0917,2.1037,2.1039,2.1041,2.1051,2.1049,2.1048,2.1046,2.1175,2.1181,2.1186,0,0,0,0,0,0,0,0,0,0,0,0,0,2.08,2.0698,2.0914,2.0937,2.094,2.1037,2.1039,2.1041,2.1051,2.1049,2.1047,2.1045,2.1173,2.118,2.1187,2.1271,0,0,2.1209,2.1212,0,0,0,0,0,0,0,0,2.0793,2.0808,2.0932,2.0935,2.0939,2.1026,2.1008,2.1118,2.1052,2.1009,2.1047,2.1044,2.1129,2.1139,2.1167,2.1277,2.1283,2.1209,2.1214,2.1217,2.1219,0,0,0,0,0,0,0,2.0786,2.0803,2.0963,2.0934,2.0938,2.0942,2.0955,2.1029,2.1079,2.1013,2.1014,2.1028,2.113,2.116,2.117,2.1285,2.1209,2.1215,2.122,2.1223,2.1473,2.1475,0,0,0,0,0,0,2.0774,2.0796,2.0959,2.0967,2.086,2.0948,2.0962,2.1001,2.1078,2.1088,2.1029,2.1028,2.1149,2.1162,2.1175,2.128,2.1217,2.1223,2.1227,2.147,2.1473,2.1476,0,0,0,0,0,0,2.0769,2.0788,2.0954,2.0882,2.0903,2.0954,2.0997,2.1004,2.1034,2.1091,2.11,2.105,2.1148,2.1165,2.1247,2.1284,2.1226,2.1233,2.1467,2.1471,2.1474,2.1489,0,0,0,0,0,0,2.0762,2.0786,2.0817,2.0882,2.0907,2.1023,2.0999,2.1008,2.1045,2.1045,2.1113,2.1122,2.1148,2.1237,2.1254,2.1293,2.1238,2.1464,2.1469,2.1473,2.1485,2.1492,2.1499,0,0,0,0,0,2.0755,2.0817,2.0819,2.0839,2.0947,2.1025,2.104,2.1066,2.1048,2.1081,2.1118,2.112,2.1277,2.1245,2.1265,2.1306,2.1462,2.1468,2.1473,2.1482,2.1491,2.1498,0,0,0,0,0,0,2.0756,2.0826,2.0829,2.0914,2.0963,2.1027,2.1069,2.1074,2.1131,2.1128,2.116,2.1176,2.1258,2.129,2.1253,2.1393,2.1368,2.1378,2.1368,2.1377,2.1384,2.1374,2.1244,0,0,0,0,0,2.0766,2.0822,2.0881,2.095,2.0975,2.1018,2.1053,2.1069,2.1122,2.1144,2.1187,2.1239,2.1301,2.1341,2.14,2.149,2.1506,2.1528,2.1535,2.154,2.1548,2.16,2.1612,2.1493,2.1493,2.1493,0,0,2.0787,2.0833,2.0866,2.0952,2.0992,2.1052,2.1035,2.1098,2.1144,2.1154,2.1234,2.1268,2.1329,2.1416,2.1457,2.1446,2.1585,2.1547,2.1551,2.1556,2.1607,2.1618,2.1628,2.1497,2.1496,2.1496,0,0,2.0857,2.0896,2.0959,2.1,2.1061,2.1089,2.1105,2.1168,2.119,2.1271,2.1281,2.1336,2.144,2.1484,2.152,2.1608,2.1613,2.1627,2.1662,2.1712,2.1722,2.173,2.1763,2.1774,2.1635,2.1635,2.1635,0,2.0876,2.0965,2.0991,2.1055,2.1093,2.1104,2.1169,2.1208,2.1286,2.1313,2.13,2.1432,2.1474,2.1573,2.1594,2.1623,2.1643,2.162,2.1718,2.1727,2.1735,2.1767,2.1779,2.1636,2.1636,2.1636,2.1636,0,2.0987,2.1048,2.1092,2.1166,2.121,2.1274,2.1311,2.1352,2.1365,2.1395,2.1479,2.153,2.1601,2.1625,2.1639,2.1727,2.1718,2.1711,2.1687,2.1747,2.1778,2.179,2.1638,2.1638,2.1637,2.1637,0,0,2.106,2.1149,2.1165,2.1199,2.1269,2.1318,2.1383,2.1451,2.1487,2.1541,2.1598,2.1687,2.1681,2.1722,2.1741,2.1785,2.1854,2.1773,2.1774,2.1787,2.1955,2.1961,2.1974,2.1857,2.1859,2.1861,2.1951,0,2.1139,2.1254,2.1281,2.1381,2.1439,2.1451,2.1509,2.1559,2.1589,2.1644,2.1678,2.1742,2.1728,2.1753,2.1797,2.1836,2.1888,2.183,2.1912,2.1915,2.1897,2.199,2.1996,2.2078,2.1963,2.1965,2.1966,0,2.1246,2.1301,2.1407,2.147,2.1496,2.1547,2.1612,2.1664,2.1722,2.1741,2.1787,2.1802,2.1873,2.1845,2.1944,2.1904,2.1939,2.1964,2.1968,2.1977,2.1945,2.2003,2.2104,2.2117,2.1985,2.1984,2.1982,0,2.129,2.1392,2.1469,2.1498,2.1573,2.1609,2.1642,2.1698,2.1738,2.1796,2.1823,2.1888,2.1925,2.1976,2.2009,2.1985,2.2107,2.2081,2.2126,2.2125,2.2151,2.2149,2.2261,2.2173,2.2172,2.2172,2.2172,0,2.1376,2.144,2.149,2.1537,2.1611,2.1641,2.1714,2.1747,2.1797,2.1852,2.1868,2.192,2.1959,2.2018,2.2044,2.2123,2.2139,2.2158,2.2165,2.2157,2.2155,2.2182,2.2177,2.2176,2.2175,2.2174,2.2174,0,2.1438,2.1474,2.1559,2.1623,2.1641,2.1692,2.1748,2.1796,2.1827,2.1897,2.1915,2.1965,2.2034,2.2072,2.2159,2.2177,2.2266,2.2269,2.2246,2.2249,2.2293,2.2289,2.2426,2.2446,2.2343,2.2344,2.2345,0,2.1491,2.1541,2.1611,2.1648,2.1682,2.1743,2.1784,2.1816,2.1859,2.1929,2.1969,2.2039,2.2096,2.2207,2.2252,2.2319,2.2325,2.2368,2.2335,2.2327,2.2327,2.2324,2.233,2.2374,2.2375,2.2376,2.2376,0,2.1581,2.1596,2.1654,2.1719,2.1767,2.182,2.1872,2.1903,2.1944,2.1992,2.2062,2.2107,2.2196,2.2267,2.2338,2.2374,2.2383,2.2386,2.2401,2.2394,2.2379,2.2389,2.2263,2.2383,2.2383,2.2382,2.2382,2.2381,2.1641,2.1687,2.1743,2.1808,2.185,2.1899,2.1948,2.1985,2.2044,2.2118,2.2134,2.221,2.2268,2.2364,2.2403,2.2463,2.2455,2.2475,2.2481,2.2485,2.2488,2.2369,2.2476,2.2476,2.2476,2.2476,2.2476,0,2.1733,2.177,2.1829,2.1902,2.1953,2.1956,2.2014,2.2058,2.2123,2.2176,2.2233,2.2315,2.2384,2.2434,2.2505,2.2544,2.255,2.2561,2.2559,2.2568,2.249,2.2471,2.2555,2.2555,2.2555,2.2555,2.2555,2.2555,2.1787,2.1865,2.1887,2.1987,2.2024,2.2097,2.2131,2.2177,2.2219,2.231,2.2367,2.2399,2.2452,2.2526,2.259,2.2603,2.2629,2.264,2.2654,2.2581,2.2573,2.2565,2.2547,2.2645,2.2646,2.2727,2.2727,2.2728]},{"header":{"parameterUnit":"m.s-1","parameterCategory":1,"la1":30.2991,"la2":30.254,"lo1":-89.0895,"lo2":-89.0444,"dy":0.0017,"dx":0.0017,"nx":28,"ny":28,"refTime":"2023-04-16T21:00:00:Z","depth":0,"parameterNumber":3,"parameterNumberName":"V-component_of_WINDS"},"data":[0,0,0,0,0,0,0,0,0,0,0,0,0,0,0,0,0,0,0,0,0,0,0,0,0,0,0,0,0,0,0,0,0,0,0,0,0,0,0,0,0,0,0,0,0,0,0,0,0,0,0,0,0,0,0,0,0,0,-0.3984,-0.3984,0,-0.3965,-0.3964,-0.3964,-0.4051,-0.4054,-0.4056,-0.4059,-0.4034,-0.4031,-0.4028,0,0,0,0,0,0,0,0,0,0,0,0,0,-0.4095,-0.4092,-0.3984,-0.3984,-0.3984,-0.3965,-0.3964,-0.3964,-0.4051,-0.4054,-0.4057,-0.406,-0.4035,-0.4031,-0.4027,0,0,0,0,0,0,0,0,0,0,0,0,0,-0.4058,-0.4091,-0.3984,-0.4025,-0.4028,-0.3965,-0.3964,-0.3964,-0.405,-0.4054,-0.4058,-0.4061,-0.4036,-0.4031,-0.4027,-0.3922,0,0,-0.4013,-0.4011,0,0,0,0,0,0,0,0,-0.406,-0.4054,-0.4019,-0.4022,-0.4026,-0.4015,-0.3994,-0.395,-0.4049,-0.4042,-0.4059,-0.4063,-0.4024,-0.4021,-0.4008,-0.3921,-0.392,-0.4013,-0.401,-0.4008,-0.4007,0,0,0,0,0,0,0,-0.4062,-0.4055,-0.3976,-0.4019,-0.4023,-0.4043,-0.4042,-0.3986,-0.4011,-0.4043,-0.4049,-0.4046,-0.4026,-0.4012,-0.4008,-0.3919,-0.4013,-0.4009,-0.4006,-0.4004,-0.3749,-0.3745,0,0,0,0,0,0,-0.406,-0.4057,-0.3977,-0.3976,-0.4053,-0.4038,-0.4037,-0.4014,-0.4012,-0.4016,-0.4042,-0.405,-0.4018,-0.4014,-0.4008,-0.3887,-0.4008,-0.4004,-0.4001,-0.3753,-0.3748,-0.3743,0,0,0,0,0,0,-0.4062,-0.4052,-0.3978,-0.4018,-0.401,-0.4032,-0.4006,-0.4012,-0.3998,-0.4012,-0.4017,-0.4024,-0.4021,-0.4014,-0.3944,-0.3888,-0.4002,-0.3997,-0.3757,-0.3751,-0.3746,-0.3644,0,0,0,0,0,0,-0.4065,-0.4052,-0.4013,-0.4017,-0.4008,-0.3914,-0.4002,-0.4009,-0.399,-0.4,-0.3996,-0.3999,-0.4024,-0.395,-0.3939,-0.3883,-0.3994,-0.3763,-0.3755,-0.3748,-0.3652,-0.3635,-0.362,0,0,0,0,0,-0.4068,-0.3983,-0.401,-0.4,-0.3959,-0.3911,-0.3906,-0.3938,-0.3985,-0.3946,-0.3956,-0.3999,-0.3896,-0.3942,-0.3931,-0.3872,-0.3766,-0.3757,-0.3748,-0.3659,-0.3638,-0.3621,0,0,0,0,0,0,-0.3969,-0.3984,-0.4014,-0.3928,-0.3918,-0.3926,-0.3877,-0.3914,-0.3888,-0.3898,-0.3937,-0.3936,-0.3859,-0.3859,-0.391,-0.3773,-0.3839,-0.3827,-0.3776,-0.3756,-0.374,-0.3742,-0.399,0,0,0,0,0,-0.3937,-0.3898,-0.3913,-0.3835,-0.3829,-0.3854,-0.3834,-0.386,-0.385,-0.3846,-0.385,-0.3838,-0.3804,-0.378,-0.3748,-0.3653,-0.3654,-0.3607,-0.3591,-0.3578,-0.3567,-0.352,-0.35,-0.3714,-0.3714,-0.3714,0,0,-0.387,-0.3874,-0.3846,-0.3815,-0.3811,-0.3769,-0.3849,-0.3801,-0.3771,-0.3838,-0.3773,-0.3776,-0.3765,-0.3683,-0.3647,-0.368,-0.3509,-0.3567,-0.3556,-0.3552,-0.3509,-0.3488,-0.347,-0.3707,-0.3709,-0.3709,0,0,-0.3729,-0.3726,-0.3663,-0.3658,-0.3651,-0.3669,-0.3654,-0.3657,-0.3663,-0.3599,-0.3649,-0.3613,-0.3552,-0.3543,-0.3531,-0.339,-0.343,-0.3378,-0.3295,-0.3248,-0.3231,-0.3217,-0.3168,-0.315,-0.3368,-0.3367,-0.3367,0,-0.3646,-0.3587,-0.3625,-0.3575,-0.3561,-0.3623,-0.356,-0.3552,-0.3534,-0.3522,-0.3561,-0.3488,-0.3485,-0.3403,-0.3369,-0.3356,-0.3341,-0.3379,-0.3231,-0.3216,-0.3203,-0.3158,-0.3139,-0.3362,-0.3362,-0.3363,-0.3363,0,-0.3487,-0.3445,-0.3395,-0.338,-0.336,-0.3302,-0.3333,-0.3307,-0.3336,-0.335,-0.3285,-0.3284,-0.3255,-0.3238,-0.3263,-0.316,-0.3181,-0.3224,-0.3292,-0.3176,-0.3134,-0.3117,-0.3353,-0.3355,-0.3357,-0.3358,0,0,-0.3279,-0.329,-0.327,-0.3266,-0.3265,-0.3233,-0.318,-0.3154,-0.3133,-0.3119,-0.3076,-0.3025,-0.3066,-0.3052,-0.3077,-0.3036,-0.2928,-0.3085,-0.3085,-0.3057,-0.2817,-0.2785,-0.2764,-0.2954,-0.2951,-0.2948,-0.2818,0,-0.3141,-0.3053,-0.3088,-0.2996,-0.296,-0.302,-0.2974,-0.2968,-0.298,-0.295,-0.2963,-0.2927,-0.2983,-0.2976,-0.2938,-0.2949,-0.288,-0.2959,-0.2915,-0.2913,-0.2917,-0.2742,-0.2707,-0.2584,-0.2802,-0.2799,-0.2797,0,-0.2968,-0.2952,-0.2857,-0.2867,-0.2853,-0.2811,-0.2792,-0.2763,-0.2758,-0.277,-0.2756,-0.2792,-0.2741,-0.2809,-0.2739,-0.2792,-0.2776,-0.2779,-0.2775,-0.2773,-0.2848,-0.2736,-0.2545,-0.2527,-0.2771,-0.2773,-0.2775,0,-0.2829,-0.2782,-0.2721,-0.2715,-0.2723,-0.2693,-0.2695,-0.2695,-0.2678,-0.2661,-0.2651,-0.2627,-0.2614,-0.2595,-0.2624,-0.267,-0.2551,-0.2621,-0.256,-0.2559,-0.2532,-0.2534,-0.2338,-0.252,-0.252,-0.2521,-0.2521,0,-0.2672,-0.2612,-0.2659,-0.2621,-0.2557,-0.2598,-0.2533,-0.2541,-0.2541,-0.2506,-0.2555,-0.2521,-0.2561,-0.253,-0.2552,-0.2493,-0.2486,-0.2495,-0.2501,-0.2491,-0.249,-0.2481,-0.2491,-0.2516,-0.2517,-0.2518,-0.2519,0,-0.2504,-0.2533,-0.2471,-0.2486,-0.2489,-0.2441,-0.2453,-0.2419,-0.2436,-0.2391,-0.2383,-0.2409,-0.2376,-0.2404,-0.237,-0.2385,-0.2307,-0.2325,-0.2309,-0.2315,-0.2254,-0.226,-0.2046,-0.2021,-0.2218,-0.2216,-0.2214,0,-0.2403,-0.2359,-0.2371,-0.2353,-0.2353,-0.2321,-0.2306,-0.2345,-0.2327,-0.2321,-0.2288,-0.226,-0.224,-0.2185,-0.22,-0.2176,-0.2195,-0.2122,-0.2191,-0.2183,-0.2196,-0.2199,-0.2195,-0.2107,-0.2105,-0.2103,-0.2102,0,-0.222,-0.2238,-0.2215,-0.2198,-0.218,-0.2167,-0.2159,-0.2141,-0.2181,-0.2159,-0.2128,-0.2112,-0.2081,-0.2053,-0.2035,-0.2036,-0.2075,-0.208,-0.2065,-0.2054,-0.2048,-0.2052,-0.2272,-0.2085,-0.2086,-0.2088,-0.2088,-0.2089,-0.2083,-0.2049,-0.2054,-0.2027,-0.2026,-0.2018,-0.1988,-0.2004,-0.1979,-0.1958,-0.1983,-0.1945,-0.1945,-0.1925,-0.1922,-0.1893,-0.1923,-0.19,-0.1895,-0.1889,-0.1881,-0.2052,-0.1889,-0.1889,-0.189,-0.189,-0.1891,0,-0.1905,-0.1912,-0.1888,-0.1877,-0.1857,-0.1899,-0.1893,-0.1873,-0.184,-0.1837,-0.1818,-0.1784,-0.1758,-0.1772,-0.175,-0.1724,-0.1742,-0.1717,-0.172,-0.172,-0.1854,-0.1871,-0.1704,-0.1704,-0.1704,-0.1704,-0.1704,-0.1704,-0.181,-0.1755,-0.1774,-0.1719,-0.1726,-0.1692,-0.1686,-0.1679,-0.1678,-0.1638,-0.1618,-0.1629,-0.1633,-0.1613,-0.1591,-0.1596,-0.1586,-0.1555,-0.1567,-0.1692,-0.171,-0.1728,-0.1743,-0.1552,-0.1552,-0.1435,-0.1434,-0.1433]}]]